Lynchburg, VA

8:00 PM EDT on October 14, 2019 (GMT -0400)
Lynchburg Regional-Glenn

Weather History for KLYH - August, 2019

Change the Weather History Date:

Friday, August 9, 2019

  Actual Average Record
Temperature  
Mean Temperature 78 °F 75 °F  
Max Temperature 90 °F 86 °F 101 °F (1930)
Min Temperature 66 °F 64 °F 53 °F (2002)
Degree Days  
Heating Degree Days 0 0  
Month to date heating degree days 0 0  
Since 1 June heating degree days 2 15  
Since 1 July heating degree days 0 1  
Cooling Degree Days 13 10  
Month to date cooling degree days 107 90  
Year to date cooling degree days 962 704  
Since 1 June cooling degree days 750 622  
Growing Degree Days 28 (Base 50)    
Moisture  
Dew Point 66 °F    
Average Humidity 68    
Maximum Humidity 87    
Minimum Humidity 48    
Precipitation  
Precipitation 0.04 in 0.10 in 2.43 in (1952)
Month to date precipitation 2.16 1.02  
Year to date precipitation 26.50 25.69  
Snow  
Snow 0.00 in - - ()
Month to date snowfall 0.0  
Since 1 June snowfall 0.0  
Since 1 July snowfall 0.0  
Snow Depth 0.00 in    
Sea Level Pressure  
Sea Level Pressure 29.87 in    
Wind  
Wind Speed 4 mph (WSW)    
Max Wind Speed 16 mph    
Max Gust Speed 28 mph    
Visibility 10 miles    
Events Rain , Thunderstorm    
T = Trace of Precipitation, MM = Missing Value Source: NWS Daily Summary

Daily Weather History Graph

Daily Weather History Graph

Search for Another Location

Airport or City:

Astronomy

Aug. 09, 2019 Rise Set
Actual Time 6:27 AM EDT 8:16 PM EDT
Civil Twilight 5:59 AM EDT 8:44 PM EDT
Nautical Twilight 5:25 AM EDT 9:18 PM EDT
Astronomical Twilight 4:48 AM EDT 9:54 PM EDT
Moon 3:54 PM EDT (8/9) 1:24 AM EDT (8/9)
Length of Visible Light 14h 44m
Length of Day
13h 48m
Waxing Gibbous, 70% of the Moon is Illuminated
Aug 9
Waxing Gibbous
Aug 15
Full
Aug 23
Last Quarter
Aug 30
New
Sep 5
First Quarter

Hourly Weather History & Observations

Time (EDT) Temp. Heat Index Dew Point Humidity Pressure Visibility Wind Dir Wind Speed Gust Speed Precip Events Conditions
12:54 AM 73.0 °F - 63.0 °F 71% 29.86 in 10.0 mi Variable 3.5 mph - N/A   Clear
1:54 AM 68.0 °F - 64.0 °F 87% 29.86 in 10.0 mi Calm Calm - N/A   Clear
2:54 AM 68.0 °F - 64.0 °F 87% 29.84 in 10.0 mi South 4.6 mph - N/A   Clear
3:54 AM 73.9 °F - 63.0 °F 68% 29.83 in 10.0 mi West 8.1 mph - N/A   Scattered Clouds
4:54 AM 71.1 °F - 64.0 °F 78% 29.84 in 10.0 mi SE 3.5 mph - 0.00 in   Partly Cloudy
5:54 AM 69.1 °F - 63.0 °F 81% 29.85 in 10.0 mi Calm Calm - N/A   Clear
6:54 AM 66.9 °F - 62.1 °F 84% 29.87 in 10.0 mi WNW 3.5 mph - N/A   Clear
7:54 AM 72.0 °F - 64.9 °F 78% 29.88 in 10.0 mi SE 3.5 mph - N/A   Clear
8:54 AM 78.1 °F - 64.9 °F 64% 29.88 in 10.0 mi WSW 4.6 mph - N/A   Clear
9:54 AM 81.0 °F 83.8 °F 68.0 °F 65% 29.89 in 10.0 mi SSW 5.8 mph - N/A   Clear
10:54 AM 84.0 °F 86.5 °F 66.9 °F 56% 29.89 in 10.0 mi West 6.9 mph 18.4 mph N/A   Clear
11:54 AM 86.0 °F 87.6 °F 64.9 °F 49% 29.89 in 10.0 mi WNW 8.1 mph - N/A   Clear
12:54 PM 87.1 °F 89.2 °F 66.0 °F 49% 29.89 in 10.0 mi West 6.9 mph 18.4 mph N/A   Clear
1:54 PM 87.1 °F 89.2 °F 66.0 °F 49% 29.87 in 10.0 mi SW 6.9 mph - N/A   Partly Cloudy
2:54 PM 90.0 °F 93.6 °F 68.0 °F 48% 29.85 in 10.0 mi WSW 4.6 mph - N/A   Partly Cloudy
3:22 PM 81.0 °F 83.3 °F 66.9 °F 62% 29.89 in 3.0 mi WSW 16.1 mph 28.8 mph 0.00 in Rain , Thunderstorm Thunderstorms and Rain
3:32 PM 75.0 °F - 69.1 °F 82% 29.89 in 8.0 mi West 3.5 mph - 0.04 in Rain Light Rain
3:54 PM 78.1 °F - 71.1 °F 79% 29.84 in 10.0 mi Calm Calm - 0.04 in   Partly Cloudy
4:54 PM 82.0 °F 85.5 °F 69.1 °F 65% 29.84 in 10.0 mi Variable 4.6 mph - N/A   Clear
5:54 PM 84.0 °F 85.8 °F 64.9 °F 53% 29.84 in 10.0 mi Variable 5.8 mph - N/A   Clear
6:54 PM 82.0 °F 84.9 °F 68.0 °F 62% 29.85 in 10.0 mi SSW 5.8 mph - N/A   Clear
7:54 PM 75.9 °F - 69.1 °F 79% 29.86 in 10.0 mi Calm Calm - N/A   Clear
8:54 PM 75.9 °F - 64.9 °F 69% 29.87 in 10.0 mi Calm Calm - N/A   Clear
9:54 PM 72.0 °F - 66.0 °F 81% 29.88 in 10.0 mi Calm Calm - N/A   Clear
10:54 PM 71.1 °F - 66.0 °F 84% 29.89 in 10.0 mi Calm Calm - N/A   Clear
11:54 PM 72.0 °F - 66.0 °F 81% 29.90 in 10.0 mi West 3.5 mph - N/A   Clear